sat.trackr.live / text

‹ back to catalog

STARLINK-1797

NORAD 46698 · 2020-073AE

PAYLOAD ACTIVE UNKNOWN

§ Identity

Operator
Country
US
Launch date
2020-10-18
Launch site
AFETR
Launch vehicle
Mass (kg)
RCS (m²)

Purposes: comms

External: N2YO · Heavens-Above · Gunter

§ Orbital elements

Epoch: 2026-05-25T03:18:52.333344Z

Period
91.93 min
Inclination
53.0403°
Eccentricity
0.0007242
Mean motion
15.66428118 rev/d
Perigee alt
364.2 km
Apogee alt
374.0 km
Semi-major
6,747.3 km
B*
5.8173e-4
RAAN
195.8421°
Arg perigee
356.2910°
Mean anomaly
3.8050°
Rev number
30,953

§ Raw data

STARLINK-17971 46698U 20073AE  26145.13810571  .00061603  00000+0  58173-3 0  99912 46698  53.0403 195.8421 0007242 356.2910   3.8050 15.66428118309539

JSON: /api/v1/satellites/46698 · /tle

For live sub-satellite position, see the globe view (requires WebGL).

§ Visibility from observer

Set your observer location to see the next 7 days of passes ≥ 10°. The values pass through the URL so the page stays shareable.

No JS? Fill the form by hand. The geolocation button needs JavaScript.